Weather observations for the past three days for
Ontario Municipal Airport
Metric (Imperial)
Date Time (mdt) Wind (kph) Vis. (km) Weather Sky Cond. Temperature (ºC) Relative Humidity Wind Chill (°C) Heat Index (°C) Pressure Precipitation (cm)
Air Dwpt 6 hour altimeter (cm) sea level (mb) 1 hr 3 hr 6 hr
Max. Min.
04 17:53 N 22 16.09 Fair CLR 29.4 2.8 30 25 18% 28 75.31 1002.7
04 16:53 N 24 G 43 16.09 Fair CLR 29.4 1.7 17% 28 75.36 1003.4
04 14:53 NW 19 G 31 16.09 Fair CLR 28.3 1.7 18% 27 75.46 1004.7
04 13:53 Calm 16.09 Fair CLR 27.2 0.6 18% 26 75.51 1005.4
04 12:53 N 15 16.09 Fair CLR 26.7 1.1 19% 26 75.57 1006.1
04 11:53 Vrbl 9 16.09 Fair CLR 25 2.2 25.6 11.7 23% 25 75.62 1006.6
04 10:53 NW 17 16.09 Fair CLR 23.9 2.8 25% 25 75.64 1007.0
04 09:53 NW 22 16.09 Fair CLR 21.1 3.9 32% 75.67 1007.6
04 08:53 W 13 16.09 Fair CLR 17.8 4.4 41% 75.69 1008.0
04 07:53 W 15 16.09 Fair CLR 13.9 3.9 51% 75.69 1007.8
04 06:53 W 9 16.09 Fair CLR 12.2 3.3 55% 75.67 1007.5
04 05:53 W 9 16.09 Fair CLR 15 3.3 18.3 11.7 46% 75.62 1006.8
04 04:53 W 9 16.09 Fair CLR 12.2 3.9 57% 75.62 1006.8
04 03:53 W 6 16.09 Fair CLR 14.4 3.9 50% 75.64 1006.9
04 02:53 N 7 16.09 Fair CLR 16.1 3.9 44% 75.64 1007.0
04 01:53 NW 11 16.09 Fair CLR 16.1 3.9 44% 75.64 1007.2
04 00:53 NW 9 16.09 Fair CLR 16.7 3.3 41% 75.64 1007.1
03 23:53 NW 17 16.09 Fair CLR 18.9 2.8 29.4 18.9 34% 75.62 1007.0
03 22:53 N 11 16.09 Fair CLR 20 2.2 31% 75.62 1007.0
03 21:53 NW 24 16.09 Fair CLR 20.6 2.8 31% 75.57 1006.5
03 20:53 NW 13 16.09 Fair CLR 20.6 4.4 35% 75.54 1006.5
03 19:53 N 17 16.09 Fair CLR 26.7 2.2 20% 26 75.54 1006.5
03 18:53 NW 13 16.09 Fair CLR 28.3 -0.6 15% 27 75.59 1007.1
03 17:53 NW 22 16.09 Fair CLR 29.4 -0.6 29.4 22.2 14% 28 75.64 1007.4
03 16:53 N 13 16.09 Fair CLR 29.4 -1.1 14% 28 75.69 1008.4
03 15:53 NE 13 16.09 Fair CLR 28.9 -2.2 13% 27 75.77 1009.4
03 14:53 NW 15 16.09 Fair CLR 28.3 1.1 17% 27 75.84 1010.2
03 13:53 Vrbl 6 16.09 Fair CLR 26.1 3.3 23% 26 75.9 1011.1
03 12:53 Calm 16.09 Fair CLR 24.4 4.4 27% 25 75.97 1012.1
03 11:53 Calm 16.09 Fair CLR 22.2 5.6 22.2 4.4 34% 76.02 1012.8
03 10:53 Calm 16.09 Fair CLR 20 5 38% 76.07 1013.5
03 09:53 Calm 16.09 Fair CLR 15.6 3.9 46% 76.1 1014.2
03 08:53 Calm 16.09 Fair CLR 11.7 3.3 57% 76.12 1014.6
03 07:53 NW 6 16.09 Fair CLR 7.2 2.8 74% 76.12 1014.4
03 06:53 NW 7 16.09 Fair CLR 5.6 1.7 76% 4 76.1 1014.0
03 05:53 SW 6 16.09 Fair CLR 6.7 2.2 13.3 6.1 73% 76.1 1014.0
03 04:53 W 6 16.09 Fair CLR 6.1 2.8 80% 76.07 1013.7
03 03:53 W 7 16.09 Fair CLR 7.8 2.8 71% 7 76.07 1013.7
03 02:53 W 11 16.09 Fair CLR 8.3 3.3 71% 7 76.07 1013.7
03 01:53 W 11 16.09 Fair CLR 10 3.3 63% 9 76.07 1013.6
03 00:53 W 15 16.09 Fair CLR 11.1 3.9 61% 76.07 1013.6
02 23:53 W 17 16.09 Fair CLR 12.8 4.4 26.1 12.2 57% 76.05 1013.4
02 22:53 Calm 16.09 Fair CLR 14.4 3.9 50% 76.02 1013.1
02 21:53 W 13 16.09 Fair CLR 16.1 5.6 50% 75.97 1012.4
02 20:53 W 6 16.09 Fair CLR 18.3 6.7 47% 75.92 1012.1
02 19:53 NW 9 16.09 Fair CLR 23.3 3.3 27% 75.92 1011.9
02 18:53 N 11 16.09 Fair CLR 25.6 1.7 21% 25 75.95 1012.2
02 17:53 Calm 16.09 Fair CLR 25.6 1.7 26.7 18.9 21% 25 75.97 1012.4
02 16:53 NE 7 16.09 Fair CLR 25.6 3.3 24% 25 76.02 1012.9
02 15:53 NE 9 16.09 Fair CLR 25 0.6 20% 25 76.1 1013.8
02 14:53 N 9 16.09 Fair CLR 23.3 2.8 26% 76.15 1014.8
02 13:53 Calm 16.09 Fair CLR 22.2 1.7 26% 76.2 1015.6
02 12:53 SE 9 16.09 Fair CLR 21.1 2.2 29% 76.28 1016.4
02 11:53 Calm 16.09 Fair CLR 18.9 2.8 19.4 5 34% 76.33 1017.1
02 10:53 E 9 16.09 Fair CLR 17.2 2.8 38% 76.33 1017.3
02 09:53 Calm 16.09 Fair CLR 13.3 4.4 55% 76.35 1017.6
02 08:53 Calm 16.09 Fair CLR 9.4 3.3 66% 76.35 1017.5
02 07:53 W 7 16.09 Fair CLR 6.7 2.8 76% 6 76.33 1017.3
02 06:53 W 7 16.09 Fair CLR 5 2.2 82% 4 76.3 1016.9
02 05:53 NW 7 16.09 Fair CLR 5 2.8 12.2 5 86% 4 76.3 1016.9
02 04:53 W 9 16.09 Fair CLR 7.2 2.8 74% 6 76.3 1016.7
02 03:53 W 11 16.09 Fair CLR 7.8 3.3 73% 6 76.28 1016.5
02 02:53 W 7 16.09 Fair CLR 7.2 3.3 77% 6 76.28 1016.6
02 01:53 W 6 16.09 Fair CLR 8.3 3.3 71% 76.3 1016.8
02 00:53 Calm 16.09 Fair CLR 10 3.9 66% 76.28 1016.7
01 23:53 Calm 16.09 Fair CLR 12.2 3.9 23.9 12.2 57% 76.28 1016.4
01 22:53 E 6 16.09 Fair CLR 13.3 3.9 53% 76.28 1016.7
01 21:53 N 7 16.09 Fair CLR 16.7 3.3 41% 76.25 1016.4
01 20:53 N 6 16.09 Fair CLR 20 1.7 30% 76.23 1016.0
01 19:53 NE 7 16.09 Fair CLR 22.2 1.7 26% 76.23 1016.1
01 18:53 E 7 16.09 Fair CLR 23.3 0.6 22% 76.25 1016.8
Date Time (mdt) Wind (kph) Vis. (km) Weather Sky Cond. Air Dwpt Max. Min. Relative Humidity Wind Chill (°C) Heat Index (°C) altimeter (cm) sea level (mb) 1 hr 3 hr 6 hr
6 hour
Temperature (ºC) Pressure Precipitation (cm)